Weather History for Aiken, SC

Change the Weather History Date:

Tuesday, October 11, 2011

  Actual Average Record
Temperature  
Mean Temperature 63 °F -  
Max Temperature 64 °F 77 °F 89 °F (2014)
Min Temperature 62 °F 52 °F 46 °F (2012)
Degree Days  
Heating Degree Days 2    
Growing Degree Days 13 (Base 50)    
Moisture  
Dew Point 63 °F    
Average Humidity 100    
Maximum Humidity 100    
Minimum Humidity 100    
Precipitation  
Precipitation 0.00 in - - ()
Sea Level Pressure  
Sea Level Pressure 29.96 in    
Wind  
Wind Speed 14 mph (NE)    
Max Wind Speed 20 mph    
Max Gust Speed 29 mph    
Visibility 8 miles    
Events Rain , Thunderstorm    
Averages and records for this station are not official NWS values.
T = Trace of Precipitation, MM = Missing Value Source: NWS Daily Summary

Daily Weather History Graph

Daily Weather History Graph

Search for Another Location

Airport:

Trip Planner

Search our weather history database for the weather conditions in past years. The results will help you decide how hot, cold, wet, or windy it might be!

Date:

Astronomy

Oct. 11, 2011 Rise Set
Actual Time 7:28 AM EDT 6:58 PM EDT
Civil Twilight 7:03 AM EDT 7:23 PM EDT
Nautical Twilight 6:34 AM EDT 7:52 PM EDT
Astronomical Twilight 6:05 AM EDT 8:20 PM EDT
Moon 6:32 PM EDT (10/11) 7:03 AM EDT (10/11)
Length of Visible Light 12h 19m
Length of Day
11h 30m
Full, 100% of the Moon is Illuminated
Oct 11
Full
Oct 11
Full
Oct 19
Last Quarter
Oct 26
New
Nov 2
First Quarter

Hourly Weather History & Observations

Time (EDT) Temp. Dew Point Humidity Pressure Visibility Wind Dir Wind Speed Gust Speed Precip Events Conditions
12:15 AM 64.4 °F 64.4 °F 100% 30.00 in 10.0 mi NE 15.0 mph 20.7 mph N/A Thunderstorm Overcast
12:35 AM 64.4 °F 64.4 °F 100% 30.00 in 10.0 mi NE 12.7 mph 17.3 mph N/A   Overcast
12:55 AM 64.4 °F 64.4 °F 100% 29.99 in 10.0 mi NE 13.8 mph - N/A   Overcast
1:15 AM 64.4 °F 64.4 °F 100% 29.98 in 10.0 mi NE 15.0 mph 21.9 mph N/A   Overcast
1:35 AM 64.4 °F 64.4 °F 100% 29.98 in 10.0 mi NE 15.0 mph - N/A   Overcast
1:55 AM 64.4 °F 64.4 °F 100% 29.97 in 10.0 mi NE 11.5 mph 17.3 mph N/A   Overcast
2:15 AM 64.4 °F 64.4 °F 100% 29.97 in 10.0 mi NE 12.7 mph 21.9 mph N/A   Overcast
2:35 AM 64.4 °F 64.4 °F 100% 29.97 in 10.0 mi NE 12.7 mph 18.4 mph N/A   Overcast
3:15 AM 64.4 °F 64.4 °F 100% 29.96 in 10.0 mi NE 13.8 mph - N/A   Overcast
3:35 AM 64.4 °F 64.4 °F 100% 29.95 in 10.0 mi NE 12.7 mph 18.4 mph N/A   Overcast
3:55 AM 64.4 °F 64.4 °F 100% 29.95 in 10.0 mi NE 12.7 mph 19.6 mph N/A   Overcast
4:15 AM 64.4 °F 64.4 °F 100% 29.94 in 10.0 mi NE 16.1 mph 20.7 mph N/A   Overcast
4:35 AM 64.4 °F 64.4 °F 100% 29.94 in 10.0 mi NE 13.8 mph 21.9 mph N/A   Overcast
4:55 AM 64.4 °F 64.4 °F 100% 29.94 in 10.0 mi NE 11.5 mph 19.6 mph N/A   Overcast
5:15 AM 64.4 °F 64.4 °F 100% 29.94 in 10.0 mi ENE 16.1 mph 23.0 mph N/A   Overcast
5:55 AM 64.4 °F 64.4 °F 100% 29.95 in 10.0 mi NE 19.6 mph 24.2 mph N/A   Overcast
6:15 AM 64.4 °F 64.4 °F 100% 29.95 in 10.0 mi NE 13.8 mph 23.0 mph N/A   Overcast
7:15 AM 62.6 °F 62.6 °F 100% 29.97 in 10.0 mi NE 13.8 mph 19.6 mph N/A Rain Rain
7:35 AM 62.6 °F 62.6 °F 100% 29.97 in 7.0 mi NE 15.0 mph 21.9 mph N/A   Light Drizzle
7:55 AM 62.6 °F 62.6 °F 100% 29.97 in 5.0 mi NE 15.0 mph 20.7 mph N/A Rain Rain
8:15 AM 62.6 °F 62.6 °F 100% 29.98 in 3.0 mi NE 12.7 mph 28.8 mph N/A Rain Light Rain
8:35 AM 62.6 °F 62.6 °F 100% 29.98 in 5.0 mi NE 15.0 mph 19.6 mph N/A   Drizzle
8:55 AM 62.6 °F 62.6 °F 100% 29.98 in 4.0 mi NE 12.7 mph 24.2 mph N/A Rain Light Rain
9:15 AM 62.6 °F 62.6 °F 100% 29.98 in 5.0 mi NE 17.3 mph 23.0 mph N/A   Light Drizzle
9:35 AM 62.6 °F 62.6 °F 100% 29.98 in 5.0 mi NE 13.8 mph 21.9 mph N/A Rain Rain
10:15 AM 62.6 °F 62.6 °F 100% 29.97 in 5.0 mi NNE 13.8 mph 19.6 mph N/A   Drizzle
10:35 AM 62.6 °F 62.6 °F 100% 29.98 in 10.0 mi NE 13.8 mph - N/A   Overcast
10:55 AM 62.6 °F 62.6 °F 100% 29.97 in 4.0 mi NE 13.8 mph 25.3 mph N/A   Light Drizzle
11:15 AM 62.6 °F 62.6 °F 100% 29.97 in 7.0 mi NE 17.3 mph 23.0 mph N/A   Overcast
11:35 AM 62.6 °F 62.6 °F 100% 29.98 in 4.0 mi NE 16.1 mph 21.9 mph N/A Rain Light Rain
12:15 PM 62.6 °F 62.6 °F 100% 29.97 in 5.0 mi NE 12.7 mph 18.4 mph N/A Rain Light Rain
12:35 PM 62.6 °F 62.6 °F 100% 29.98 in 5.0 mi NE 10.4 mph 18.4 mph N/A   Drizzle
12:55 PM 62.6 °F 62.6 °F 100% 29.97 in 7.0 mi NNE 10.4 mph - N/A   Light Drizzle
1:15 PM 62.6 °F 62.6 °F 100% 29.96 in 7.0 mi NNE 12.7 mph - N/A   Drizzle
1:35 PM 62.6 °F 62.6 °F 100% 29.95 in 10.0 mi NNE 12.7 mph - N/A   Overcast
1:55 PM 62.6 °F 62.6 °F 100% 29.95 in 10.0 mi NE 12.7 mph 20.7 mph N/A Rain Light Rain
2:15 PM 62.6 °F 62.6 °F 100% 29.94 in 10.0 mi NE 12.7 mph 17.3 mph N/A   Overcast
2:35 PM 62.6 °F 62.6 °F 100% 29.93 in 10.0 mi NNE 11.5 mph 18.4 mph N/A   Overcast
2:55 PM 62.6 °F 62.6 °F 100% 29.93 in 10.0 mi NE 12.7 mph - N/A   Overcast
3:35 PM 62.6 °F 62.6 °F 100% 29.92 in 4.0 mi NE 12.7 mph 17.3 mph N/A   Drizzle
4:15 PM 62.6 °F 62.6 °F 100% 29.92 in 7.0 mi NE 10.4 mph - N/A   Overcast
4:35 PM 62.6 °F 62.6 °F 100% 29.91 in 5.0 mi NNE 8.1 mph - N/A Rain Light Rain
4:55 PM 62.6 °F 62.6 °F 100% 29.91 in 3.0 mi NE 9.2 mph - N/A   Light Drizzle
5:15 PM 62.6 °F 62.6 °F 100% 29.91 in 3.0 mi NE 10.4 mph - N/A   Light Drizzle
5:35 PM 62.6 °F 62.6 °F 100% 29.91 in 4.0 mi NNE 11.5 mph - N/A Rain Light Rain
5:55 PM 62.6 °F 62.6 °F 100% 29.90 in 5.0 mi NE 9.2 mph - N/A   Overcast
6:15 PM 62.6 °F 62.6 °F 100% 29.90 in 7.0 mi NNE 9.2 mph - N/A   Overcast
6:35 PM 62.6 °F 62.6 °F 100% 29.91 in 7.0 mi NE 8.1 mph - N/A   Overcast
6:55 PM 62.6 °F 62.6 °F 100% 29.90 in 10.0 mi NE 8.1 mph - N/A   Overcast
7:15 PM 62.6 °F 62.6 °F 100% 29.90 in 10.0 mi NE 9.2 mph - N/A   Overcast
7:35 PM 62.6 °F 62.6 °F 100% 29.90 in 7.0 mi NNE 6.9 mph - N/A   Overcast
7:55 PM 62.6 °F 62.6 °F 100% 29.90 in 10.0 mi NNE 8.1 mph - N/A   Overcast
8:15 PM 62.6 °F 62.6 °F 100% 29.91 in 10.0 mi NE 9.2 mph - N/A   Overcast
9:15 PM 62.6 °F 62.6 °F 100% 29.92 in 5.0 mi NNE 5.8 mph - N/A   Overcast
9:35 PM 62.6 °F 62.6 °F 100% 29.92 in 4.0 mi NNE 6.9 mph - N/A   Overcast
9:55 PM 62.6 °F 62.6 °F 100% 29.92 in 5.0 mi NE 5.8 mph - N/A   Overcast
10:15 PM 62.6 °F 62.6 °F 100% 29.93 in 4.0 mi NNE 6.9 mph - N/A   Overcast
10:35 PM 62.6 °F 62.6 °F 100% 29.93 in 4.0 mi North 6.9 mph - N/A   Overcast
10:55 PM 62.6 °F 62.6 °F 100% 29.93 in 4.0 mi NNE 4.6 mph - N/A   Overcast
11:15 PM 60.8 °F 60.8 °F 100% 29.92 in 5.0 mi NNE 8.1 mph - N/A Rain Light Rain
11:35 PM 60.8 °F 60.8 °F 100% 29.92 in 7.0 mi NNE 4.6 mph - N/A Rain Rain
11:55 PM 60.8 °F 60.8 °F 100% 29.92 in 5.0 mi North 4.6 mph - N/A Rain Light Rain